Guayaquil, Ecuador

6:04 AM -05 en Enero 17, 2018 (GMT -0500)
Jose Joaquin de Olmedo

Tiempo Historia de SEGU - Enero, 2018

Change the Weather History Date:

Sábado, Enero 13, 2018

  Actual Average Record
Temperature  
Temperatura media 82 ° F -  
Temperatura máxima 92 ° F 84 ° F 93 ° F (2005)
Temperatura mínima 73 ° F 72 ° F 71 ° F (2001)
Cooling Degree Days 18    
Growing Degree Days 32 (Base 50)    
Moisture  
Punto de rocío 66 ° F    
Average Humidity 59    
Maximum Humidity 78    
Minimum Humidity 34    
Precipitación  
Precipitación 0.00 pul 0.31 pul - ()
Presión al nivel del mar  
Presión al nivel del mar 29.86 pul    
Viento  
Velocidad del viento 7 mph ()    
Velocidad máxima del viento 16 mph    
Max Gust Speed -    
Visibilidad 6.2 Millas    
Eventos      
Averages and records for this station are not official NWS values.
T = Trace of Precipitation, MM = Missing Value Source: Averaged Metar Reports

Daily Weather History Graph

Daily Weather History Graph

Search for Another Location

Airport or City:

Trip Planner

Search our weather history database for the weather conditions in past years. The results will help you decide how hot, cold, wet, or windy it might be!

Date:

Astronomía

Jan. 13, 2018 Salida Puesta
Hora real 6:21 AM -05 6:35 PM -05
Crepúsculo civil 5:58 AM -05 6:57 PM -05
Crepúsculo náutico 5:33 AM -05 7:23 PM -05
Crepúsculo astronómico 5:06 AM -05 7:49 PM -05
Luna 3:33 AM -05 (1/13) 4:01 PM -05 (1/13)
Horas de luz 12h 58m
Horas de luz
12h 14m
Creciente menguante, 10% of the Moon is Illuminated
Ene 13
Creciente menguante
Ene 16
Nueva
Ene 24
Cuarto creciente
Ene 31
Luna llena
Feb 7
Cuarto menguante

Hourly Weather History & Observations

Hora (-05) Temp. Índice de calor Punto de rocío Humedad Presión Visibilidad Wind Dir Velocidad del viento Velocidad de ráfagas Precip Eventos Condiciones
12:00 AM 75.2 ° F - 68.0 ° F 78% 29.89 pul - SO 12.7 mph - N/A   Despejado
1:00 AM 75.2 ° F - 68.0 ° F 78% 29.89 pul 6.2 mi SO 10.4 mph - N/A   Muy nublado
2:00 AM 77.0 ° F - 68.0 ° F 74% 29.89 pul 6.2 mi OSO 9.2 mph - N/A   Muy nublado
3:00 AM 75.2 ° F - 68.0 ° F 78% 29.86 pul 6.2 mi SO 8.1 mph - N/A   Muy nublado
4:00 AM 75.2 ° F - 68.0 ° F 78% 29.86 pul 6.2 mi SO 8.1 mph - N/A   Muy nublado
5:00 AM 75.2 ° F - 68.0 ° F 78% 29.86 pul 6.2 mi SO 4.6 mph - N/A   Muy nublado
6:00 AM 73.4 ° F - 66.2 ° F 78% 29.86 pul 6.2 mi SSO 6.9 mph - N/A   Muy nublado
7:00 AM 74 ° F - 67 ° F 74% 29.89 pul 6 mi SO 4.6 mph - -   Bruma
7:00 AM 75.2 ° F - 68.0 ° F 78% 29.89 pul 6.2 mi SO 4.6 mph - N/A   Muy nublado
8:00 AM 77.0 ° F - 66.2 ° F 69% 29.92 pul 6.2 mi Sin viento Sin viento - N/A   Nublado
9:00 AM 80.6 ° F 82.3 ° F 64.4 ° F 58% 29.92 pul 6.2 mi NO 3.5 mph - N/A   Muy nublado
10:00 AM 84 ° F - 63 ° F 39% 29.93 pul 6 mi ONO 4.6 mph - -   Bruma
10:00 AM 84.2 ° F 85.0 ° F 62.6 ° F 48% 29.92 pul 6.2 mi ONO 4.6 mph - N/A   Muy nublado
11:00 AM 86.0 ° F 86.6 ° F 62.6 ° F 45% 29.92 pul 6.2 mi ESE 4.6 mph - N/A   Muy nublado
12:00 PM 87.8 ° F 88.5 ° F 62.6 ° F 43% 29.89 pul 6.2 mi SE 5.8 mph - N/A   Nubes dispersas
1:00 PM 89 ° F - 65 ° F 36% 29.88 pul 6 mi SE 5.8 mph - -   Bruma
1:00 PM 89.6 ° F 91.1 ° F 64.4 ° F 43% 29.86 pul 6.2 mi SE 5.8 mph - N/A   Parcialmente nublado
2:00 PM 89.6 ° F 92.2 ° F 66.2 ° F 46% 29.83 pul 6.2 mi Este 8.1 mph - N/A   Parcialmente nublado
3:00 PM 91.4 ° F 94.0 ° F 66.2 ° F 43% 29.80 pul 6.2 mi SE 5.8 mph - N/A   Parcialmente nublado
4:00 PM 91 ° F - 66 ° F 34% 29.78 pul 6 mi SSE 5.8 mph - -   Bruma
4:00 PM 91.4 ° F 94.0 ° F 66.2 ° F 43% 29.77 pul 6.2 mi SSE 5.8 mph - N/A   Nubes dispersas
5:00 PM 87.8 ° F 91.4 ° F 68.0 ° F 52% 29.77 pul 6.2 mi SSO 13.8 mph - N/A   Nubes dispersas
6:00 PM 86.0 ° F 89.4 ° F 68.0 ° F 55% 29.77 pul 6.2 mi SSO 15.0 mph - N/A   Nubes dispersas
7:00 PM 82 ° F - 67 ° F 52% 29.84 pul 6 mi SSO 11.5 mph - -   Bruma
7:00 PM 82.4 ° F 84.6 ° F 66.2 ° F 58% 29.80 pul 6.2 mi SSO 16.1 mph - N/A   Parcialmente nublado
8:00 PM 80.6 ° F 82.7 ° F 66.2 ° F 61% 29.83 pul 6.2 mi SO 15.0 mph - N/A   Parcialmente nublado
9:00 PM 78.8 ° F - 66.2 ° F 65% 29.89 pul 6.2 mi OSO 11.5 mph - N/A   Parcialmente nublado
10:00 PM 77.0 ° F - 66.2 ° F 69% 29.92 pul 6.2 mi SO 11.5 mph - N/A   Parcialmente nublado
11:00 PM 77.0 ° F - 66.2 ° F 69% 29.95 pul 6.2 mi SO 10.4 mph - N/A   Muy nublado